Station KDAA2 - 9457292 - Kodiak Island, AK Image indicating link to RSS feed of recent meteorological observations for station KDAA2


Conditions at KDAA2 as of
(11:30 pm AKDT on 07/13/2024)
0730 GMT on 07/14/2024:
     

Click on the graph icon in the table below to see a time series plot of the last five days of that observation.

5-day plot - Wind Direction Wind Direction (WDIR):SSW ( 210 deg true )
5-day plot - Wind Speed Wind Speed (WSPD): 1.0 kts
5-day plot - Wind Gust Wind Gust (GST): 4.1 kts
5-day plot - Atmospheric Pressure Atmospheric Pressure (PRES):29.50 in
5-day plot - Air Temperature Air Temperature (ATMP): 51.8 °F
5-day plot - Water Temperature Water Temperature (WTMP): 50.7 °F
5-day plot - Wind Speed at 10 Meters Wind Speed at 10 meters (WSPD10M): 1.9 kts
5-day plot - Wind Speed at 20 Meters Wind Speed at 20 meters (WSPD20M): 1.9 kts
5-day plot -  Wind Speed, Wind Gust and Atmospheric Pressure Combined plot of Wind Speed, Gust, and Air Pressure
NOS Water Level Observation Network Water Level
Previous observations
TIME
(AKDT)
5-day plot - Wind Direction
WDIR
 
5-day plot - Wind Speed
WSPD
kts
5-day plot - Wind Gust
GST
kts
5-day plot - Wave Height
WVHT
ft
5-day plot - Dominant Wave Period
DPD
sec
5-day plot - Average Wave Period
APD
sec
5-day plot - Mean Wave Direction
MWD
 
5-day plot - Atmospheric Pressure
PRES
in
5-day plot - Pressure Tendency
PTDY
in
5-day plot - Air Temperature
ATMP
°F
5-day plot - Water Temperature
WTMP
°F
5-day plot - Dew Point
DEWP
°F
5-day plot - Salinity
SAL
psu
5-day plot - Visibility
VIS
nmi
5-day plot - Tide (above MLLW)
TIDE
ft
2024-07-13 11:24 pmWSW 1.9 4.1----29.50- 52.5 50.7----
2024-07-13 11:18 pm- 0.0 1.9----29.50- 52.3 50.5----
2024-07-13 11:12 pm W 1.9 2.9----29.50- 52.7 50.5----
2024-07-13 11:06 pmWNW 1.9 2.9----29.50- 52.7 50.5----
2024-07-13 11:00 pm SW 2.9 5.1----29.49+0.04 52.7 50.5----
2024-07-13 10:54 pm SW 1.9 6.0----29.49- 52.9 50.5----
2024-07-13 10:48 pm W 4.1 6.0----29.49-- 50.5----
2024-07-13 10:42 pm W 5.1 7.0----29.49- 53.4 50.4----
2024-07-13 10:36 pmWSW 5.1 8.0----29.49- 54.1 50.4----
2024-07-13 10:30 pmWSW 5.1 9.9----29.49- 54.3 50.4----
2024-07-13 10:24 pmWSW 6.0 11.1----29.49- 54.7 50.4----
2024-07-13 10:18 pm W 8.9 12.0----29.49-- 50.4----
2024-07-13 10:12 pm W 11.1 14.0----29.48-- 50.2----
2024-07-13 10:06 pm W 7.0 8.0----29.48-- 50.2----
2024-07-13 10:00 pmWNW 6.0 8.0----29.48+0.04 55.0 50.2----
2024-07-13 09:54 pmNNW 5.1 8.9----29.48- 55.4 50.2----
2024-07-13 09:48 pm W 6.0 8.0----29.48- 55.4 50.2----
2024-07-13 09:42 pmWNW 2.9 5.1----29.48- 55.6 50.2----
2024-07-13 09:36 pmNNW 2.9 7.0----29.48- 55.6 50.2----
2024-07-13 09:30 pm NW 5.1 7.0----29.47- 55.8 50.2----
2024-07-13 09:24 pm- 0.0 2.9----29.47- 55.4 50.2----
2024-07-13 09:18 pmWNW 1.9 4.1----29.47-- 50.0----
2024-07-13 09:12 pm W 1.0 2.9----29.47-- 50.0----
2024-07-13 09:06 pm- 0.0 1.9----29.47-- 50.0----
2024-07-13 09:00 pm- 0.0 1.9----29.47+0.02- 50.0----
2024-07-13 08:54 pm- 0.0 1.9----29.47-- 50.0----
2024-07-13 08:48 pm- 0.0 1.0----29.47-- 50.0----
2024-07-13 08:42 pm SE 1.9 2.9----29.46-- 50.0----
2024-07-13 08:36 pmSSW 4.1 5.1----29.46-- 50.0----
2024-07-13 08:30 pmWSW 2.9 5.1----29.46- 54.3 50.0----
2024-07-13 08:24 pm W 1.9 5.1----29.46- 54.1 50.0----
2024-07-13 08:18 pm NW 1.9 6.0----29.46- 54.0 50.0----
2024-07-13 08:12 pmSSW 1.9 5.1----29.46- 54.3 50.0----
2024-07-13 08:06 pm W 1.9 4.1----29.46- 54.3 50.0----
2024-07-13 08:00 pm- 0.0 1.9----29.46+0.01 53.8 50.0----
2024-07-13 07:54 pmSSE 1.9 2.9----29.45- 54.0 50.0----
2024-07-13 07:48 pmSSW 1.0 1.9----29.45- 53.4 50.0----
2024-07-13 07:42 pm SW 2.9 2.9----29.45- 53.4 50.0----
2024-07-13 07:36 pm SW 1.9 2.9----29.45- 53.8 50.0----
2024-07-13 07:30 pmSSW 2.9 2.9----29.45- 54.1 50.0----
2024-07-13 07:24 pmSSW 1.9 1.9----29.45- 54.5 50.0----
2024-07-13 07:18 pm SW 1.0 1.9----29.45- 54.5 50.0----
2024-07-13 07:12 pm- 0.0 2.9----29.45- 55.0 50.0----
2024-07-13 07:06 pm- 0.0 1.9----29.44- 54.7 50.0----
2024-07-13 07:00 pmENE 1.0 4.1----29.44+0.00 54.1 50.0----
2024-07-13 06:54 pmENE 1.9 2.9----29.44- 53.6 50.0----
2024-07-13 06:48 pmENE 1.9 2.9----29.44- 53.6 50.0----
2024-07-13 06:42 pmENE 1.0 2.9----29.44- 53.8 50.0----
2024-07-13 06:36 pmENE 1.9 2.9----29.44- 53.8 50.0----
2024-07-13 06:30 pmENE 1.9 4.1----29.44- 53.8 50.2----
2024-07-13 06:24 pmENE 2.9 4.1----29.44- 53.6 50.2----
2024-07-13 06:18 pm NE 1.9 4.1----29.44- 53.6-----
2024-07-13 06:12 pmENE 4.1 5.1----29.44- 53.6-----
2024-07-13 06:06 pm NE 5.1 6.0----29.44- 53.2-----
2024-07-13 06:00 pm NE 5.1 6.0----29.44-0.02 53.2 50.2----
2024-07-13 05:54 pm NE 4.1 5.1----29.44- 53.1 50.2----
2024-07-13 05:48 pm NE 2.9 4.1----29.44-------
2024-07-13 05:42 pm NE 2.9 4.1----29.44-- 50.2----
2024-07-13 05:36 pm NE 4.1 4.1----29.44-- 50.2----
2024-07-13 05:30 pm NE 2.9 4.1----29.44- 52.2 50.2----
2024-07-13 05:24 pm NE 2.9 4.1----29.44- 52.2 50.2----
2024-07-13 05:18 pmENE 1.9 4.1----29.44-- 50.2----
2024-07-13 05:12 pmENE 2.9 4.1----29.44-- 50.2----
2024-07-13 05:06 pm NE 1.9 2.9----29.44-- 50.2----
2024-07-13 05:00 pmENE 2.9 4.1----29.44-0.03 51.8 50.2----
2024-07-13 04:54 pm NE 2.9 4.1----29.44- 52.0 50.4----
2024-07-13 04:48 pmNNE 1.9 2.9------- 50.4----
2024-07-13 04:42 pmNNE 2.9 2.9------- 50.4----
2024-07-13 04:36 pm NE 1.9 1.9------- 50.5----
2024-07-13 04:30 pm NE 1.9 2.9----29.45- 52.0 50.5----
2024-07-13 04:24 pm NE 1.9 4.1----29.45- 51.8 50.5----
2024-07-13 04:18 pmNNE 1.9 2.9----29.45- 51.8 50.5----
2024-07-13 04:12 pm NE 1.9 2.9----29.45- 52.0 50.5----
2024-07-13 04:06 pm NE 1.0 2.9----29.45- 52.0 50.5----
2024-07-13 04:00 pm NE 1.9 2.9----29.45-0.03 51.8 50.5----
2024-07-13 03:54 pmNNE 1.9 2.9----29.45- 51.6 50.5----
2024-07-13 03:48 pm NE 1.0 1.9----29.45- 51.6 50.5----
2024-07-13 03:42 pm NE 1.0 2.9----29.45- 51.6 50.5----
2024-07-13 03:36 pm NE 2.9 4.1----29.45- 51.1 50.5----
2024-07-13 03:30 pm NE 2.9 4.1----29.45- 50.7 50.5----
2024-07-13 03:24 pmENE 2.9 4.1----29.45- 50.7 50.5----
2024-07-13 03:18 pmENE 2.9 5.1----29.46- 50.5 50.5----
2024-07-13 03:12 pmENE 4.1 4.1----29.46- 50.5 50.5----
2024-07-13 03:06 pmENE 1.9 4.1----29.46- 50.9 50.5----
2024-07-13 03:00 pmENE 2.9 4.1----29.46-0.03 50.7 50.5----
2024-07-13 02:54 pm NE 2.9 4.1----29.46- 50.5 50.5----
2024-07-13 02:48 pm NE 1.9 4.1----29.47-- 50.5----
2024-07-13 02:42 pm NE 2.9 5.1----29.47- 50.7 50.5----
2024-07-13 02:36 pm NE 2.9 4.1----29.47- 50.5 50.7----
2024-07-13 02:30 pmENE 2.9 4.1----29.47-- 50.7----
2024-07-13 02:24 pm NE 4.1 5.1----29.47-- 50.7----
2024-07-13 02:18 pm NE 2.9 4.1----29.47- 50.7 50.7----
2024-07-13 02:12 pm NE 2.9 4.1----29.47- 50.5 50.7----
2024-07-13 02:06 pm NE 4.1 5.1----29.47- 50.7 50.7----
2024-07-13 02:00 pm NE 1.9 4.1----29.47-0.04 50.9 50.7----
2024-07-13 01:54 pmENE 1.9 5.1----29.47- 51.3 50.9----
2024-07-13 01:48 pm NE 4.1 4.1----29.47- 50.7 50.9----
2024-07-13 01:42 pm NE 2.9 5.1----29.47- 50.7 50.9----
2024-07-13 01:36 pmNNE 4.1 5.1----29.47- 50.7 50.9----
2024-07-13 01:30 pmENE 2.9 4.1----29.47-- 50.9----
2024-07-13 01:24 pm NE 1.9 4.1----29.48-- 50.9----
2024-07-13 01:18 pm NE 2.9 4.1----29.47- 50.7 50.9----
2024-07-13 01:12 pm NE 1.9 2.9----29.48- 50.9 50.9----
2024-07-13 01:06 pmENE 2.9 4.1----29.48- 50.5 50.9----
2024-07-13 01:00 pmENE 1.9 2.9----29.48-0.04 50.5 50.9----
2024-07-13 12:54 pm- 0.0 4.1----29.49- 50.9 50.9----
2024-07-13 12:48 pm E 1.9 2.9----29.49- 50.5 50.9----
2024-07-13 12:42 pm SE 1.0 2.9----29.49- 51.1 50.9----
2024-07-13 12:36 pm NE 2.9 5.1----29.48- 50.7 50.9----
2024-07-13 12:30 pmENE 4.1 6.0----29.48-- 50.9----
2024-07-13 12:24 pmENE 4.1 5.1----29.49-- 50.9----
2024-07-13 12:18 pmENE 4.1 6.0----29.48- 50.5 50.9----
2024-07-13 12:12 pmENE 4.1 5.1----29.49- 50.5 50.7----
2024-07-13 12:06 pmENE 2.9 5.1----29.49- 50.7 50.7----
2024-07-13 12:00 pm NE 4.1 5.1----29.49-0.04- 50.7----
2024-07-13 11:54 amENE 2.9 5.1----29.49-- 50.9----
2024-07-13 11:48 amENE 4.1 5.1----29.49-- 50.9----
2024-07-13 11:42 amENE 2.9 4.1----29.50-- 50.9----
2024-07-13 11:36 amENE 2.9 4.1----29.50-- 50.9----
2024-07-13 11:30 amENE 2.9 4.1----29.51- 50.5 50.9----
2024-07-13 11:24 am NE 2.9 4.1----29.51- 50.4 50.9----
2024-07-13 11:18 am NE 1.9 4.1----29.51- 50.5 50.7----
2024-07-13 11:12 amENE 1.9 4.1----29.51- 50.4 50.7----
2024-07-13 11:06 amENE 1.0 2.9----29.51- 50.5 50.5----
2024-07-13 11:00 am NE 1.9 2.9----29.51-0.04- 50.5----
2024-07-13 10:54 am NE 1.9 2.9----29.52-- 50.5----
2024-07-13 10:48 am NE 1.9 2.9----29.52- 50.2 50.5----
2024-07-13 10:42 am NE 1.9 2.9----29.52- 50.2 50.5----
2024-07-13 10:36 am NE 1.9 2.9----29.52- 50.4 50.4----
2024-07-13 10:30 am- 0.0 1.9----29.52- 50.4 50.4----
2024-07-13 10:24 am- 0.0 1.0----29.52- 50.2 50.4----
2024-07-13 10:18 am- 0.0 1.0----29.52- 50.2 50.4----
2024-07-13 10:12 am W 1.0 1.9----29.52- 50.0 50.4----
2024-07-13 10:06 am W 1.9 1.9----29.53- 49.8 50.4----
2024-07-13 10:00 amWNW 1.0 1.9----29.52-0.04 50.2 50.2----
2024-07-13 09:54 am- 0.0 1.9----29.52- 50.0 50.2----
2024-07-13 09:48 am W 1.9 2.9----29.53-------
2024-07-13 09:42 am SW 1.9 2.9----29.53-------
2024-07-13 09:36 am SW 1.0 2.9----29.53-------
2024-07-13 09:30 am- 0.0 1.0----29.53- 49.8 50.2----
2024-07-13 09:24 am- 0.0 1.0----29.53- 49.6 50.2----
2024-07-13 09:18 am- 0.0 1.9----29.53- 49.6 50.2----
2024-07-13 09:12 am W 1.0 1.0----29.53- 49.6 50.2----
2024-07-13 09:06 am- 0.0 0.0----29.53- 50.0 50.2----
2024-07-13 09:00 am-------29.53-0.05- 50.2----
2024-07-13 08:54 am-------29.54-- 50.2----
2024-07-13 08:48 am- 0.0 1.0----29.54- 49.8 50.2----
2024-07-13 08:42 am- 0.0 1.0----29.54- 49.6 50.2----
2024-07-13 08:36 am- 0.0 1.0----29.54- 49.6 50.2----
2024-07-13 08:30 am- 0.0 1.0------ 49.6 50.2----
2024-07-13 08:24 am- 0.0 1.0------ 49.6 50.0----
2024-07-13 08:18 am- 0.0 1.0----29.55-------
2024-07-13 08:12 am- 0.0 1.0----29.55-------
2024-07-13 08:06 amSSW 1.0 1.9----29.55-------
2024-07-13 08:00 amSSW 1.0 2.9----29.55-0.04 49.3 50.0----
2024-07-13 07:54 amSSW 1.9 2.9----29.56- 49.3 50.0----
2024-07-13 07:48 amSSW 1.9 1.9----29.56- 49.1 50.0----
2024-07-13 07:42 amSSW 1.9 1.9----29.56- 49.1 50.0----
2024-07-13 07:36 amSSW 1.9 1.9----29.56- 48.9 50.0----
2024-07-13 07:30 am SW 1.9 2.9----29.56- 49.1 50.0----
2024-07-13 07:24 amSSW 2.9 2.9----29.56- 49.1 50.0----
2024-07-13 07:18 am SW 2.9 2.9----29.57- 49.1 50.0----
2024-07-13 07:12 am SW 1.9 2.9----29.57- 49.3 50.0----
2024-07-13 07:06 amWSW 1.0 1.9----29.56- 49.3 50.0----
2024-07-13 07:00 am SW 1.9 1.9----29.57-0.04 49.3 50.0----
2024-07-13 06:54 am- 0.0 1.0----29.57- 49.3 50.0----
2024-07-13 06:48 am- 0.0 0.0----29.56-- 50.0----
2024-07-13 06:42 am- 0.0 0.0----29.57- 49.5 50.0----
2024-07-13 06:36 am- 0.0 0.0----29.57- 49.3 50.0----
2024-07-13 06:30 am- 0.0 0.0----29.57- 49.3 50.0----
2024-07-13 06:24 am- 0.0 0.0----29.57- 49.3 50.0----
2024-07-13 06:18 am- 0.0 1.0----29.57-- 50.0----
2024-07-13 06:12 am SW 1.0 1.9----29.58- 49.3 50.0----
2024-07-13 06:06 amWSW 1.9 1.9----29.58- 49.3 50.0----
2024-07-13 06:00 amWSW 1.0 1.9----29.58-0.04 49.3 50.2----
2024-07-13 05:54 am- 0.0 1.0----29.58- 49.3 50.2----
2024-07-13 05:48 am- 0.0 0.0----29.58- 49.3 50.2----
2024-07-13 05:42 am- 0.0 1.0----29.58- 49.3 50.2----
2024-07-13 05:36 am- 0.0 0.0----29.58- 49.3 50.2----
2024-07-13 05:30 am- 0.0 0.0----29.59- 49.5 50.2----
2024-07-13 05:24 am- 0.0 2.9----29.59- 49.5 50.2----
2024-07-13 05:18 am SW 2.9 2.9----29.60- 49.3 50.2----
2024-07-13 05:12 amSSW 1.9 1.9----29.60- 49.5 50.2----
2024-07-13 05:06 am- 0.0 1.9----29.59- 49.5 50.2----
2024-07-13 05:00 amSSW 1.0 1.9----29.60-0.04 49.5 50.2----
2024-07-13 04:54 amSSW 1.9 1.9----29.60- 49.5 50.2----
2024-07-13 04:48 amSSW 1.9 1.9----29.60- 49.5 50.2----
2024-07-13 04:42 am SW 1.9 2.9----29.60- 49.5 50.2----
2024-07-13 04:36 am SW 1.9 2.9----29.60- 49.5 50.2----
2024-07-13 04:30 am SW 2.9 4.1----29.61- 49.5 50.2----
2024-07-13 04:24 am SW 1.9 1.9----29.61- 49.5 50.2----
2024-07-13 04:18 am- 0.0 1.9----29.60- 49.8 50.4----
2024-07-13 04:12 amENE 1.0 1.9----29.60- 49.8 50.4----
2024-07-13 04:06 amENE 1.9 2.9----29.60- 49.8 50.4----
2024-07-13 04:00 am E 1.9 2.9----29.61-0.04 49.8 50.4----
2024-07-13 03:54 am E 1.9 2.9----29.60- 49.8 50.4----
2024-07-13 03:48 amENE 1.9 2.9----29.60-- 50.5----
2024-07-13 03:42 amENE 1.9 2.9----29.61-- 50.5----
2024-07-13 03:36 am- 0.0 2.9----29.61-- 50.5----
2024-07-13 03:30 amENE 2.9 2.9----29.61-- 50.5----
2024-07-13 03:24 amENE 1.9 2.9----29.61-- 50.5----
2024-07-13 03:18 amENE 1.9 2.9----29.61- 49.8 50.5----
2024-07-13 03:12 am NE 1.0 2.9----29.62- 50.0 50.5----
2024-07-13 03:06 am NE 1.9 2.9----29.62- 50.0 50.5----
2024-07-13 03:00 am NE 1.0 2.9----29.62- 50.0 50.5----
2024-07-13 02:54 am NE 1.9 2.9----29.62- 50.0 50.5----
2024-07-13 02:48 am NE 1.9 2.9----29.62- 50.0 50.7----
2024-07-13 02:42 am NE 1.9 4.1----29.62- 50.0 50.7----
2024-07-13 02:36 am NE 2.9 4.1----29.62- 49.8 50.7----
2024-07-13 02:30 amENE 2.9 4.1----29.62- 49.8 50.7----
2024-07-13 02:24 amENE 2.9 4.1----29.63- 50.0 50.7----
2024-07-13 02:18 am NE 2.9 4.1----29.63-- 50.7----
2024-07-13 02:12 am NE 2.9 4.1----29.63- 50.0 50.7----
2024-07-13 02:06 am NE 2.9 4.1----29.63- 50.0 50.7----
2024-07-13 02:00 am NE 2.9 5.1----29.63-0.02- 50.7----
2024-07-13 01:54 am NE 2.9 5.1----29.64-- 50.7----
2024-07-13 01:48 am NE 2.9 5.1----29.64-- 50.7----
2024-07-13 01:42 am NE 2.9 5.1----29.64-- 50.7----
2024-07-13 01:36 am NE 4.1 4.1----29.64-- 50.7----
2024-07-13 01:30 am NE 2.9 4.1----29.64- 50.0 50.7----
2024-07-13 01:24 am NE 2.9 5.1----29.64- 50.0 50.7----
2024-07-13 01:18 am NE 4.1 5.1----29.64-- 50.7----
2024-07-13 01:12 am NE 4.1 5.1----29.64- 50.0 50.7----
2024-07-13 01:06 am NE 4.1 5.1----29.65- 50.2 50.7----
2024-07-13 01:00 amENE 2.9 5.1----29.64-0.01 50.2 50.7----
2024-07-13 12:54 am NE 2.9 5.1----29.65- 50.2 50.7----
2024-07-13 12:48 am NE 4.1 6.0----29.65-- 50.7----
2024-07-13 12:42 am NE 4.1 5.1----29.65- 50.2 50.7----
2024-07-13 12:36 am NE 2.9 5.1----29.65- 50.4 50.7----
2024-07-13 12:30 am NE 4.1 5.1----29.65- 50.2 50.7----
2024-07-13 12:24 am NE 2.9 5.1----29.65- 50.4 50.7----
2024-07-13 12:18 amENE 2.9 4.1----29.65-- 50.7----
2024-07-13 12:12 am NE 1.9 5.1----29.65- 50.4 50.7----
2024-07-13 12:06 am NE 4.1 5.1----29.65- 50.2 50.7----
2024-07-13 12:00 am NE 4.1 5.1------ 50.2 50.7----
2024-07-12 11:54 pm NE 4.1 5.1------ 50.2 50.7----